Tiempo cada hora Barranco de Loba

Hoy, 13 Mayo, Jueves

Tiempo Temperatura Precipitaciones Viento Presión Humedad
00:00 +26°C° 0.5 mm 0 mps 754 mmHg 87%
01:00 +27°C° 0.5 mm 1 mps 754 mmHg 89%
02:00 +27°C° 0 mm 1 mps 754 mmHg 91%
03:00 +27°C° 0 mm 1 mps 753 mmHg 92%
04:00 +27°C° 0 mm 1 mps 753 mmHg 94%
05:00 +27°C° 0.1 mm 1 mps 754 mmHg 93%
06:00 +27°C° 0.1 mm 1 mps 754 mmHg 92%
07:00 +28°C° 0.1 mm 1 mps 755 mmHg 90%
08:00 +29°C° 0 mm 1 mps 755 mmHg 81%
09:00 +31°C° 0 mm 1 mps 755 mmHg 72%
10:00 +33°C° 0 mm 1 mps 755 mmHg 63%
11:00 +34°C° 0 mm 1 mps 754 mmHg 58%
12:00 +35°C° 0 mm 1 mps 754 mmHg 53%
13:00 +36°C° 0 mm 1 mps 753 mmHg 48%
14:00 +35°C° 0 mm 1 mps 752 mmHg 52%
15:00 +34°C° 0 mm 1 mps 752 mmHg 57%
16:00 +35°C° 0 mm 2 mps 751 mmHg 61%
17:00 +32°C° 0 mm 1 mps 752 mmHg 68%
18:00 +31°C° 0 mm 1 mps 752 mmHg 74%
19:00 +29°C° 0 mm 1 mps 753 mmHg 81%
20:00 +29°C° 0 mm 1 mps 753 mmHg 83%
21:00 +28°C° 0 mm 1 mps 754 mmHg 86%
22:00 +25°C° 0 mm 0 mps 754 mmHg 89%
23:00 +25°C° 0 mm 0 mps 754 mmHg 91%

Mañana, 14 Mayo, Viernes

Tiempo Temperatura Precipitaciones Viento Presión Humedad
00:00 +25°C° 0 mm 0 mps 754 mmHg 93%
01:00 +25°C° 0 mm 0 mps 754 mmHg 96%
02:00 +24°C° 0 mm 0 mps 754 mmHg 96%
03:00 +24°C° 0 mm 0 mps 754 mmHg 97%
04:00 +24°C° 0 mm 0 mps 754 mmHg 98%
05:00 +25°C° 0 mm 0 mps 754 mmHg 95%
06:00 +25°C° 0 mm 0 mps 755 mmHg 92%
07:00 +26°C° 0 mm 0 mps 755 mmHg 89%
08:00 +28°C° 0 mm 0 mps 755 mmHg 78%
09:00 +31°C° 0 mm 0 mps 755 mmHg 66%
10:00 +33°C° 0 mm 0 mps 755 mmHg 54%
11:00 +34°C° 0 mm 0 mps 754 mmHg 49%
12:00 +37°C° 0 mm 1 mps 753 mmHg 45%
13:00 +39°C° 0 mm 1 mps 752 mmHg 40%
14:00 +39°C° 0 mm 1 mps 752 mmHg 42%
15:00 +39°C° 0 mm 2 mps 751 mmHg 43%
16:00 +38°C° 0 mm 2 mps 751 mmHg 45%
17:00 +36°C° 0 mm 2 mps 751 mmHg 55%
18:00 +33°C° 0 mm 1 mps 752 mmHg 65%
19:00 +30°C° 0 mm 1 mps 752 mmHg 75%
20:00 +29°C° 0.6 mm 1 mps 753 mmHg 81%
21:00 +28°C° 0.6 mm 1 mps 754 mmHg 86%
22:00 +25°C° 0.6 mm 0 mps 755 mmHg 92%
23:00 +25°C° 0.2 mm 0 mps 754 mmHg 94%

Pasado mañana, 15 Mayo, Sábado

Tiempo Temperatura Precipitaciones Viento Presión Humedad
00:00 +27°C° 0.2 mm 1 mps 754 mmHg 95%
01:00 +26°C° 0.2 mm 1 mps 754 mmHg 96%
02:00 +24°C° 0 mm 0 mps 754 mmHg 97%
03:00 +24°C° 0 mm 0 mps 754 mmHg 97%
04:00 +24°C° 0 mm 0 mps 754 mmHg 97%
05:00 +25°C° 0 mm 0 mps 754 mmHg 96%
06:00 +25°C° 0 mm 0 mps 755 mmHg 95%
07:00 +25°C° 0 mm 0 mps 755 mmHg 94%
08:00 +27°C° 1 mm 0 mps 755 mmHg 88%
09:00 +28°C° 1 mm 0 mps 755 mmHg 82%
10:00 +30°C° 1 mm 0 mps 755 mmHg 76%
11:00 +33°C° 0 mm 1 mps 754 mmHg 66%
12:00 +35°C° 0 mm 1 mps 754 mmHg 56%
13:00 +37°C° 0 mm 1 mps 753 mmHg 47%
14:00 +36°C° 0 mm 1 mps 752 mmHg 49%
15:00 +36°C° 0 mm 1 mps 752 mmHg 51%
16:00 +36°C° 0 mm 2 mps 751 mmHg 53%
17:00 +33°C° 0 mm 1 mps 752 mmHg 62%
18:00 +32°C° 0 mm 1 mps 752 mmHg 70%
19:00 +30°C° 0 mm 1 mps 753 mmHg 79%
20:00 +29°C° 2.3 mm 1 mps 754 mmHg 85%
21:00 +28°C° 2.3 mm 1 mps 754 mmHg 90%
22:00 +27°C° 2.3 mm 1 mps 755 mmHg 96%
23:00 +26°C° 1.7 mm 1 mps 755 mmHg 96%

16 Mayo, Domingo

Tiempo Temperatura Precipitaciones Viento Presión Humedad
00:00 +24°C° 1.7 mm 0 mps 754 mmHg 97%
01:00 +24°C° 1.7 mm 0 mps 754 mmHg 97%
02:00 +24°C° 2.5 mm 0 mps 754 mmHg 97%
03:00 +24°C° 2.5 mm 0 mps 755 mmHg 98%
04:00 +23°C° 2.5 mm 0 mps 755 mmHg 98%
05:00 +24°C° 0.1 mm 0 mps 755 mmHg 98%
06:00 +26°C° 0.1 mm 1 mps 756 mmHg 97%
07:00 +26°C° 0.1 mm 1 mps 756 mmHg 97%
08:00 +27°C° 0 mm 1 mps 756 mmHg 90%
09:00 +29°C° 0 mm 1 mps 756 mmHg 82%
10:00 +30°C° 0 mm 1 mps 756 mmHg 75%
11:00 +32°C° 0 mm 1 mps 756 mmHg 68%
12:00 +33°C° 0 mm 1 mps 755 mmHg 61%
13:00 +35°C° 0 mm 1 mps 754 mmHg 54%
14:00 +34°C° 0.8 mm 1 mps 754 mmHg 62%
15:00 +33°C° 0.8 mm 1 mps 753 mmHg 70%
16:00 +31°C° 0.8 mm 1 mps 753 mmHg 77%
17:00 +30°C° 0.2 mm 1 mps 754 mmHg 83%
18:00 +29°C° 0.2 mm 1 mps 754 mmHg 88%
19:00 +27°C° 0.2 mm 1 mps 754 mmHg 93%
20:00 +27°C° 1.2 mm 1 mps 755 mmHg 94%
21:00 +26°C° 1.2 mm 1 mps 756 mmHg 96%
22:00 +26°C° 1.2 mm 1 mps 756 mmHg 98%
23:00 +26°C° 1.2 mm 1 mps 756 mmHg 98%

17 Mayo, Lunes

Tiempo Temperatura Precipitaciones Viento Presión Humedad
00:00 +26°C° 1.2 mm 1 mps 756 mmHg 98%
01:00 +25°C° 1.2 mm 1 mps 756 mmHg 99%
02:00 +25°C° 0.2 mm 1 mps 755 mmHg 99%
03:00 +23°C° 0.2 mm 0 mps 755 mmHg 99%
04:00 +23°C° 0.2 mm 0 mps 755 mmHg 99%
05:00 +24°C° 0.2 mm 0 mps 756 mmHg 98%
06:00 +24°C° 0.2 mm 0 mps 756 mmHg 98%
07:00 +26°C° 0.2 mm 1 mps 756 mmHg 97%
08:00 +27°C° 0 mm 1 mps 756 mmHg 92%
09:00 +28°C° 0 mm 1 mps 757 mmHg 87%
10:00 +29°C° 0 mm 1 mps 757 mmHg 81%
11:00 +30°C° 0 mm 1 mps 756 mmHg 75%
12:00 +32°C° 0 mm 1 mps 755 mmHg 68%
13:00 +33°C° 0 mm 1 mps 754 mmHg 62%
14:00 +33°C° 0 mm 1 mps 754 mmHg 63%
15:00 +32°C° 0 mm 1 mps 754 mmHg 65%
16:00 +32°C° 0 mm 1 mps 753 mmHg 66%
17:00 +31°C° 0.1 mm 1 mps 754 mmHg 74%
18:00 +27°C° 0.1 mm 0 mps 754 mmHg 82%
19:00 +26°C° 0.1 mm 0 mps 754 mmHg 90%
20:00 +25°C° 0.8 mm 0 mps 755 mmHg 91%
21:00 +25°C° 0.8 mm 0 mps 756 mmHg 93%
22:00 +24°C° 0.8 mm 0 mps 756 mmHg 94%
23:00 +24°C° 0.3 mm 0 mps 756 mmHg 95%

18 Mayo, Martes

Tiempo Temperatura Precipitaciones Viento Presión Humedad
00:00 +24°C° 0.3 mm 0 mps 756 mmHg 96%
01:00 +23°C° 0.3 mm 0 mps 756 mmHg 97%
02:00 +23°C° 1.6 mm 0 mps 756 mmHg 98%
03:00 +23°C° 1.6 mm 0 mps 756 mmHg 98%
04:00 +23°C° 1.6 mm 0 mps 756 mmHg 99%
05:00 +23°C° 1.2 mm 0 mps 756 mmHg 98%
06:00 +23°C° 1.2 mm 0 mps 757 mmHg 98%
07:00 +24°C° 1.2 mm 0 mps 757 mmHg 98%
08:00 +27°C° 0.1 mm 1 mps 757 mmHg 91%
09:00 +29°C° 0.1 mm 1 mps 757 mmHg 84%
10:00 +30°C° 0.1 mm 1 mps 757 mmHg 76%
11:00 +30°C° 0 mm 1 mps 757 mmHg 74%
12:00 +31°C° 0 mm 1 mps 756 mmHg 72%
13:00 +31°C° 0 mm 2 mps 755 mmHg 69%
14:00 +31°C° 0.2 mm 1 mps 755 mmHg 69%
15:00 +32°C° 0.2 mm 1 mps 754 mmHg 68%
16:00 +32°C° 0.2 mm 1 mps 754 mmHg 68%
17:00 +30°C° 0.1 mm 1 mps 754 mmHg 75%
18:00 +28°C° 0.1 mm 1 mps 755 mmHg 82%
19:00 +27°C° 0.1 mm 1 mps 755 mmHg 89%
20:00 +26°C° 0.1 mm 1 mps 756 mmHg 90%
21:00 +26°C° 0.1 mm 1 mps 756 mmHg 91%
22:00 +24°C° 0.1 mm 0 mps 756 mmHg 92%
23:00 +24°C° 0.4 mm 0 mps 756 mmHg 93%
Mostrar más

Necesitamos Su Consentimiento

Meteoprog y nuestros Proveedores de Servicios pueden almacenar y acceder a sus datos personales como cookies, identificadores de dispositivo u otras tecnologías similares de su dispositivo y procesar dichos datos para personalizar contenido y anuncios, además de ofrecer funciones de redes sociales y analizar el tráfico.

  • Almacenar y/o acceder a información en su dispositivo

    Se puede almacenar o acceder a cookies, identificadores de dispositivo u otra información de su dispositivo para los fines anteriormente indicados.

  • Anuncios y contenido personalizados, medición de anuncios y contenido, percepciones del público, y desarrollo de productos

    Los anuncios y el contenido pueden personalizarse en base a su perfil. Se pueden añadir más datos para personalizar mejor los anuncios y contenidos. Se puede medir el rendimiento de los anuncios y contenidos. Se puede obtener la percepción sobre el público que ha visto los anuncios y contenidos. Dichos datos pueden usarse para desarrollar o mejorar la experiencia del usuario, sistemas y software.

Al hacer clic en ‘Estoy De Acuerdo’ usted permitirá el uso de las cookies, identificadores de dispositivo, balizas web u otras tecnologías similares indicadas. Su configuración puede cambiarse desde el navegador de su dispositivo.

Para ciertos fines, los intereses legítimos pueden ser considerados por encima del consentimiento. Puede leer más sobre ello en nuestra Política de Privacidad y Cookies.